Carbondale, IL

6:45 AM CDT on October 20, 2019 (GMT -0500)
Southern Illinois

Weather History for KMDH - September, 2019

Change the Weather History Date:

Monday, September 16, 2019

  Actual Average Record
Temperature  
Mean Temperature 80 °F -  
Max Temperature 96 °F 79 °F 101 °F (1927)
Min Temperature 64 °F 56 °F 33 °F (1996)
Cooling Degree Days 15    
Growing Degree Days 30 (Base 50)    
Moisture  
Dew Point 68 °F    
Average Humidity 73    
Maximum Humidity 93    
Minimum Humidity 40    
Precipitation  
Precipitation 0.00 in - - ()
Sea Level Pressure  
Sea Level Pressure 30.05 in    
Wind  
Wind Speed 2 mph (West)    
Max Wind Speed 8 mph    
Max Gust Speed -    
Visibility 9 miles    
Events      
Averages and records for this station are not official NWS values.
T = Trace of Precipitation, MM = Missing Value Source: NWS Daily Summary

Daily Weather History Graph

Daily Weather History Graph

Search for Another Location

Airport or City:

Astronomy

Sep. 16, 2019 Rise Set
Actual Time 6:39 AM CDT 7:03 PM CDT
Civil Twilight 6:13 AM CDT 7:29 PM CDT
Nautical Twilight 5:42 AM CDT 8:00 PM CDT
Astronomical Twilight 5:10 AM CDT 8:32 PM CDT
Moon 8:40 PM CDT (9/16) 8:44 AM CDT (9/16)
Length of Visible Light 13h 16m
Length of Day
12h 24m
Waning Gibbous, 94% of the Moon is Illuminated
Sep 16
Waning Gibbous
Sep 21
Last Quarter
Sep 28
New
Oct 5
First Quarter
Oct 13
Full

Hourly Weather History & Observations

Time (CDT) Temp. Heat Index Dew Point Humidity Pressure Visibility Wind Dir Wind Speed Gust Speed Precip Events Conditions
12:52 AM 66.9 °F - 64.9 °F 93% 30.06 in 10.0 mi South 3.5 mph - N/A   Clear
1:52 AM 66.9 °F - 64.9 °F 93% 30.06 in 10.0 mi SSW 3.5 mph - N/A   Scattered Clouds
2:52 AM 70.0 °F - 64.9 °F 84% 30.06 in 10.0 mi Calm Calm - N/A   Clear
3:52 AM 66.0 °F - 64.0 °F 93% 30.06 in 10.0 mi South 3.5 mph - N/A   Clear
4:52 AM 64.9 °F - 63.0 °F 93% 30.07 in 10.0 mi Calm Calm - N/A   Clear
5:52 AM 64.9 °F - 63.0 °F 93% 30.07 in 8.0 mi Calm Calm - N/A   Clear
6:52 AM 66.0 °F - 64.0 °F 93% 30.09 in 7.0 mi Calm Calm - N/A   Clear
7:52 AM 70.0 °F - 66.9 °F 90% 30.11 in 7.0 mi Calm Calm - N/A   Mostly Cloudy
8:52 AM 75.0 °F - 69.1 °F 82% 30.12 in 9.0 mi Calm Calm - N/A   Clear
9:52 AM 84.0 °F 88.4 °F 70.0 °F 63% 30.11 in 10.0 mi West 3.5 mph - N/A   Partly Cloudy
10:52 AM 90.0 °F 96.4 °F 71.1 °F 54% 30.10 in 10.0 mi West 4.6 mph - N/A   Clear
11:52 AM 93.0 °F 97.9 °F 69.1 °F 45% 30.09 in 10.0 mi NW 8.1 mph - N/A   Clear
12:52 PM 93.9 °F 97.5 °F 66.9 °F 41% 30.07 in 10.0 mi NW 4.6 mph - N/A   Clear
1:52 PM 96.1 °F 101.0 °F 68.0 °F 40% 30.04 in 10.0 mi WNW 5.8 mph - N/A   Clear
2:52 PM 95.0 °F 99.5 °F 68.0 °F 41% 30.02 in 10.0 mi Calm Calm - N/A   Clear
3:52 PM 95.0 °F 99.5 °F 68.0 °F 41% 30.01 in 10.0 mi WSW 8.1 mph - N/A   Clear
4:52 PM 90.0 °F 95.4 °F 70.0 °F 52% 30.00 in 10.0 mi WNW 4.6 mph - N/A   Clear
5:52 PM 89.1 °F 95.0 °F 71.1 °F 55% 30.00 in 10.0 mi NW 4.6 mph - N/A   Clear
7:52 PM 80.1 °F 83.8 °F 72.0 °F 76% 30.01 in 10.0 mi Calm Calm - N/A   Clear
8:52 PM 77.0 °F - 72.0 °F 84% 30.01 in 10.0 mi Calm Calm - N/A   Clear
9:52 PM 73.9 °F - 70.0 °F 87% 30.02 in 9.0 mi Calm Calm - N/A   Clear
10:52 PM 73.0 °F - 70.0 °F 90% 30.03 in 8.0 mi Calm Calm - N/A   Clear
11:52 PM 73.0 °F - 71.1 °F 93% 30.03 in 7.0 mi Calm Calm - N/A   Clear